This is the latest recevied weather packets stored in our database for station/object SV6DBG-10. If no packets are shown the sender has not sent any weather packets the latest 1 day(s).
| Time | Temp. | Humidity | Pressure | Rain* | Wind** | Luminosity | Snow |
|---|---|---|---|---|---|---|---|
| 1777853654 | 7.22° C | 68% | 1022.2 hPa | - | - | - | - |
| 1777852754 | 7.22° C | 67% | 1022.3 hPa | - | - | - | - |
| 1777851854 | 7.78° C | 68% | 1022.4 hPa | - | - | - | - |
| 1777850954 | 8.89° C | 63% | 1022.4 hPa | - | - | - | - |
| 1777850054 | 8.89° C | 62% | 1022.4 hPa | - | - | - | - |
| 1777849154 | 9.44° C | 61% | 1022.4 hPa | - | - | - | - |
| 1777848253 | 9.44° C | 58% | 1022.3 hPa | - | - | - | - |
| 1777847353 | 9.44° C | 58% | 1022.3 hPa | - | - | - | - |
| 1777846453 | 9.44° C | 57% | 1022.2 hPa | - | - | - | - |
| 1777845553 | 10° C | 56% | 1022.2 hPa | - | - | - | - |
| 1777844653 | 10.56° C | 54% | 1022.1 hPa | - | - | - | - |
| 1777843753 | 11.11° C | 55% | 1022 hPa | - | - | - | - |
| 1777842852 | 11.11° C | 52% | 1021.9 hPa | - | - | - | - |
| 1777841952 | 11.11° C | 52% | 1021.8 hPa | - | - | - | - |
| 1777841052 | 11.11° C | 51% | 1021.8 hPa | - | - | - | - |
| 1777840151 | 10.56° C | 50% | 1021.8 hPa | - | - | - | - |
| 1777839251 | 11.11° C | 48% | 1021.6 hPa | - | - | - | - |
| 1777838351 | 11.11° C | 48% | 1021.6 hPa | - | - | - | - |
| 1777837451 | 11.11° C | 48% | 1021.5 hPa | - | - | - | - |
| 1777836550 | 11.67° C | 47% | 1021.2 hPa | - | - | - | - |
| 1777835650 | 11.67° C | 47% | 1021.1 hPa | - | - | - | - |
* Rain since midnight (hover to see other rain measurements)
** Current wind speed in m/s (hover to see current wind gust speed)